Holloman AFB, NM

2:50 AM MST on February 25, 2017 (GMT -0700)
Holloman Air Force Base

Weather History for KHMN - August, 2013

Change the Weather History Date:

Wednesday, August 28, 2013

  Actual Average Record
Temperature  
Mean Temperature 75 °F -  
Max Temperature 81 °F 89 °F 102 °F (2002)
Min Temperature 69 °F 62 °F 59 °F (1997)
Cooling Degree Days 10    
Growing Degree Days 25 (Base 50)    
Moisture  
Dew Point 58 °F    
Average Humidity 53    
Maximum Humidity 68    
Minimum Humidity 43    
Precipitation  
Precipitation 0.00 in - - ()
Sea Level Pressure  
Sea Level Pressure 29.98 in    
Wind  
Wind Speed 4 mph (NW)    
Max Wind Speed 9 mph    
Max Gust Speed -    
Visibility 11 miles    
Events      
Averages and records for this station are not official NWS values.
T = Trace of Precipitation, MM = Missing Value Source: NWS Daily Summary

Daily Weather History Graph

Daily Weather History Graph

Search for Another Location

Airport or City:

Trip Planner

Search our weather history database for the weather conditions in past years. The results will help you decide how hot, cold, wet, or windy it might be!

Date:

Astronomy

Aug. 28, 2013 Rise Set
Actual Time 6:36 AM MDT 7:33 PM MDT
Civil Twilight 6:11 AM MDT 7:59 PM MDT
Nautical Twilight 5:41 AM MDT 8:29 PM MDT
Astronomical Twilight 5:10 AM MDT 8:59 PM MDT
Moon No Moon Rise 2:04 PM MDT (8/28)
Length of Visible Light 13h 47m
Length of Day
12h 57m
Waning Gibbous, 47% of the Moon is Illuminated
Aug 28
Waning Gibbous
Sep 5
New
Sep 12
First Quarter
Sep 19
Full
Sep 26
Last Quarter

Hourly Weather History & Observations

Time (MDT) Temp. Heat Index Dew Point Humidity Pressure Visibility Wind Dir Wind Speed Gust Speed Precip Events Conditions
12:56 AM 76.5 °F - 52.7 °F 43% 29.89 in 12.0 mi South 9.2 mph - N/A   Clear
1:56 AM 72.7 °F - 53.2 °F 50% 29.90 in 12.0 mi South 3.5 mph - N/A   Clear
2:56 AM 72.0 °F - 54.3 °F 54% 29.89 in 12.0 mi ENE 2.3 mph - N/A   Clear
3:56 AM 72.5 °F - 53.1 °F 50% 29.89 in 12.0 mi NE 2.3 mph - N/A   Mostly Cloudy
4:56 AM 69.4 °F - 54.3 °F 59% 29.89 in 12.0 mi North 3.5 mph - N/A   Mostly Cloudy
5:56 AM 70.9 °F - 53.8 °F 55% 29.91 in 12.0 mi North 1.2 mph - N/A   Scattered Clouds
6:56 AM 71.2 °F - 53.4 °F 53% 29.93 in 12.0 mi NW 3.5 mph - N/A   Overcast
7:56 AM 71.8 °F - 53.6 °F 53% 29.95 in 12.0 mi NNW 2.3 mph - N/A   Mostly Cloudy
8:56 AM 73.4 °F - 53.6 °F 50% 30.16 in 12.0 mi Variable 2.3 mph - N/A   Mostly Cloudy
9:55 AM 76.1 °F - 59.7 °F 57% 29.94 in 10.0 mi SSW 4.6 mph - N/A   Mostly Cloudy
10:58 AM 78.1 °F - 59.7 °F 53% 29.98 in 10.0 mi SW 4.6 mph - N/A   Mostly Cloudy
11:58 AM 79.3 °F - 59.2 °F 50% 29.96 in 10.0 mi Variable 2.3 mph - N/A   Clear
12:58 PM 79.7 °F - 59.2 °F 49% 29.96 in 10.0 mi East 2.3 mph - N/A   Clear
1:20 PM 78.8 °F - 59.0 °F 51% 30.15 in 10.0 mi SSE 2.3 mph - N/A   Light Drizzle
1:40 PM 78.8 °F - 59.0 °F 51% 30.15 in 10.0 mi Calm Calm - N/A   Clear
1:58 PM 80.1 °F 80.8 °F 59.4 °F 49% 29.95 in 10.0 mi Calm Calm - 0.00 in   Partly Cloudy
2:58 PM 81.1 °F 81.6 °F 59.7 °F 48% 29.94 in 10.0 mi Calm Calm - N/A   Clear
3:58 PM 80.4 °F 81.1 °F 59.5 °F 49% 29.93 in 10.0 mi Variable 3.5 mph - N/A   Clear
4:58 PM 80.4 °F 81.1 °F 59.4 °F 49% 29.94 in 10.0 mi WNW 6.9 mph - N/A   Clear
5:58 PM 79.7 °F - 59.4 °F 50% 29.93 in 10.0 mi NW 5.8 mph - N/A   Clear
6:58 PM 79.3 °F - 59.5 °F 51% 29.93 in 10.0 mi NW 1.2 mph - N/A   Clear
7:58 PM 78.3 °F - 60.3 °F 54% 29.94 in 10.0 mi Calm Calm - N/A   Clear
8:58 PM 76.3 °F - 61.2 °F 59% 30.15 in 10.0 mi WSW 4.6 mph - N/A   Clear
9:58 PM 74.5 °F - 62.4 °F 66% 30.17 in 10.0 mi West 4.6 mph - N/A   Clear
10:58 PM 73.8 °F - 61.9 °F 66% 29.98 in 10.0 mi WNW 4.6 mph - N/A   Clear
11:58 PM 72.9 °F - 61.9 °F 68% 29.99 in 10.0 mi NNW 3.5 mph - N/A   Clear